Regional Weather Roundup
Issued by NWS

Home | Current Version | Previous Version | Text Only | Print | Product List | Glossary On
Versions: 1 2 3 4 5 6 7 8 9 10 11 12 13 14 15 16 17 18 19 20 21 22 23 24 25 26 27 28 29 30 31 32 33 34 35 36 37 38 39 40 41 42 43 44 45 46 47 48 49 50
000
ASUS43 KLSX 030507
RWRMO

WEATHER SUMMARY FOR MISSOURI
NATIONAL WEATHER SERVICE SPRINGFIELD MO
1200 AM CDT MON AUG 03 2015

NOTE: "FAIR" INDICATES FEW OR NO CLOUDS BELOW 12,000 FEET WITH NO
       SIGNIFICANT WEATHER AND/OR OBSTRUCTIONS TO VISIBILITY.
       CURRENT SKY AND/OR WEATHER CONDITIONS ARE NOT AVAILABLE FOR
       CHILLICOTHE AND FARMINGTON.

MOZ001>031-035>038-043-044-053-054-030600-
...NORTHERN AND WESTERN MISSOURI...

CITY           SKY/WX    TMP DP  RH WIND       PRES   REMARKS
KANSAS CTY INT PTCLDY    80  71  74 E7        29.91R
KANSAS C DTWN  PTCLDY    83  71  67 E9        29.89R
LEE`S SUMMIT   MOCLDY    81  65  58 CALM      29.92R
ST JOSEPH      PTCLDY    79  64  60 E10       29.88R
CHILLICOTHE      N/A     71  65  81 S5        29.86F
KIRKSVILLE     CLOUDY    75  61  61 W9        29.84F

$$
MOZ066>068-077>081-088>096-101>105-030600-
...SOUTHWEST MISSOURI...

CITY           SKY/WX    TMP DP  RH WIND       PRES   REMARKS
SPRINGFIELD    PTCLDY    73  63  70 S7        29.94F
JOPLIN         PTCLDY    73  66  78 S5        29.94S

$$
MOZ032>034-039>042-045>050-055>058-069>072-030600-
...CENTRAL MISSOURI...

CITY           SKY/WX    TMP DP  RH WIND       PRES   REMARKS
COLUMBIA       CLOUDY    74  64  71 S5        29.91F
JEFFERSON CITY CLOUDY    81  64  56 N9        29.91R
ROLLA          MOCLDY    73  68  84 SW7       29.92R
SEDALIA        PTCLDY    77  68  73 VRB3      29.93S
WHITEMAN AFB   PTCLDY    75  68  80 S5        29.91R
WARRENSBURG    PTCLDY    75  68  78 S3        29.91S
OSAGE BEACH    PTCLDY    72  66  83 CALM      29.95R

$$
MOZ051-052-059>065-030600-
...EAST CENTRAL MISSOURI...

CITY           SKY/WX    TMP DP  RH WIND       PRES   REMARKS
ST LOUIS INTL  CLOUDY    84  67  56 SW7       29.85F
SPIRIT OF STL  CLOUDY    76  72  87 W6        29.84F
ST CHARLES     CLOUDY    78  70  76 CALM      29.82F

$$
MOZ072>076-082>087-097>100-106>115-030600-
...SOUTH CENTRAL AND SOUTHEAST MISSOURI...

CITY           SKY/WX    TMP DP  RH WIND       PRES   REMARKS
CAPE GIRARDEAU PTCLDY    76  71  85 SW5       29.88F
FARMINGTON     MOCLDY    75  70  83 CALM      29.95R
POPLAR BLUFF   CLEAR     77  72  84 SW5       29.89S
WEST PLAINS    CLEAR     75  68  78 SW3       29.97S

$$



USA.gov is the U.S. government's official web portal to all federal, state and local government web resources and services.